�������l�o���
Date,Time,MP-1(��Sv/h),MP-2(��Sv/h),MP-3(��Sv/h),MP-4(��Sv/h),MP-5(��Sv/h),MP-6(��Sv/h),MP-7(��Sv/h),MP-8(��Sv/h),����,����(m/s),���J
2020/10/06,00:00,0.678,0.969,0.612,1.187,0.854,0.385,0.677,0.639,�k��,6.1,��
2020/10/06,00:10,0.678,0.972,0.612,1.186,0.853,0.388,0.678,0.640,�k��,7.6,��
2020/10/06,00:20,0.679,0.971,0.613,1.187,0.856,0.389,0.676,0.639,�k��,9.9,��
2020/10/06,00:30,0.679,0.968,0.612,1.186,0.853,0.388,0.678,0.640,�k��,11.1,��
2020/10/06,00:40,0.679,0.971,0.614,1.186,0.855,0.388,0.679,0.639,�k��,9.3,��
2020/10/06,00:50,0.677,0.972,0.612,1.187,0.857,0.389,0.678,0.637,�k��,10.6,��
2020/10/06,01:00,0.678,0.972,0.615,1.187,0.857,0.388,0.677,0.638,�k��,10.5,��
2020/10/06,01:10,0.679,0.969,0.612,1.188,0.856,0.389,0.677,0.639,���k��,10.7,��
2020/10/06,01:20,0.681,0.970,0.611,1.187,0.854,0.388,0.677,0.637,�k��,8.9,��
2020/10/06,01:30,0.680,0.973,0.614,1.189,0.854,0.387,0.679,0.641,���k��,7.9,��
2020/10/06,01:40,0.679,0.971,0.612,1.184,0.854,0.388,0.677,0.640,���k��,7.9,��
2020/10/06,01:50,0.680,0.972,0.614,1.188,0.855,0.388,0.677,0.639,���k��,7.4,��
2020/10/06,02:00,0.678,0.972,0.612,1.188,0.856,0.389,0.678,0.639,���k��,7.6,��
2020/10/06,02:10,0.680,0.970,0.612,1.187,0.855,0.390,0.678,0.639,���k��,7.1,��
2020/10/06,02:20,0.678,0.971,0.613,1.191,0.857,0.388,0.676,0.638,���k��,7.9,��
2020/10/06,02:30,0.679,0.970,0.613,1.189,0.855,0.389,0.677,0.638,���k��,9.3,��
2020/10/06,02:40,0.680,0.971,0.613,1.187,0.854,0.391,0.678,0.640,���k��,10.9,��
2020/10/06,02:50,0.681,0.970,0.612,1.189,0.856,0.387,0.677,0.638,�k��,9.2,��
2020/10/06,03:00,0.680,0.972,0.615,1.191,0.856,0.389,0.677,0.638,���k��,7.7,��
2020/10/06,03:10,0.679,0.972,0.613,1.191,0.855,0.388,0.679,0.638,���k��,9.7,��
2020/10/06,03:20,0.680,0.971,0.614,1.188,0.856,0.391,0.679,0.638,���k��,6.9,��
2020/10/06,03:30,0.682,0.971,0.613,1.188,0.856,0.391,0.678,0.638,�k��,5.4,��
2020/10/06,03:40,0.680,0.972,0.613,1.189,0.858,0.389,0.676,0.636,�k��,3.2,��
2020/10/06,03:50,0.681,0.974,0.614,1.188,0.855,0.389,0.679,0.637,�k��,2.3,��
2020/10/06,04:00,0.680,0.971,0.613,1.191,0.855,0.390,0.679,0.638,�k�k��,3.5,��
2020/10/06,04:10,0.679,0.971,0.612,1.190,0.855,0.389,0.679,0.638,�k�k��,4.1,��
2020/10/06,04:20,0.679,0.971,0.614,1.189,0.855,0.389,0.678,0.639,�k�k��,3.8,��
2020/10/06,04:30,0.677,0.971,0.613,1.190,0.855,0.389,0.678,0.639,�k,4.9,��
2020/10/06,04:40,0.679,0.970,0.613,1.188,0.855,0.389,0.679,0.640,�k�k��,5.0,��
2020/10/06,04:50,0.679,0.971,0.612,1.188,0.855,0.389,0.676,0.638,�k��,5.6,��
2020/10/06,05:00,0.679,0.970,0.610,1.188,0.854,0.389,0.679,0.639,�k��,6.6,��
2020/10/06,05:10,0.678,0.970,0.612,1.188,0.855,0.389,0.680,0.639,�k��,5.7,��
2020/10/06,05:20,0.679,0.973,0.612,1.189,0.854,0.389,0.678,0.638,�k��,5.2,��
2020/10/06,05:30,0.680,0.972,0.611,1.190,0.853,0.390,0.678,0.639,�k��,6.2,��
2020/10/06,05:40,0.678,0.971,0.612,1.190,0.855,0.389,0.679,0.638,�k��,9.2,��
2020/10/06,05:50,0.678,0.974,0.612,1.190,0.854,0.389,0.679,0.638,�k��,8.8,��
2020/10/06,06:00,0.680,0.972,0.613,1.190,0.855,0.389,0.680,0.638,���k��,6.7,��
2020/10/06,06:10,0.677,0.971,0.611,1.190,0.854,0.389,0.679,0.637,���k��,6.1,��
2020/10/06,06:20,0.677,0.969,0.613,1.191,0.855,0.389,0.678,0.639,�k��,3.1,��
2020/10/06,06:30,0.678,0.972,0.613,1.188,0.854,0.389,0.679,0.639,�k,2.6,��
2020/10/06,06:40,0.679,0.972,0.612,1.188,0.855,0.388,0.678,0.639,�k�k��,4.0,��
2020/10/06,06:50,0.680,0.972,0.613,1.189,0.853,0.388,0.678,0.638,�k�k��,4.4,��
2020/10/06,07:00,0.679,0.972,0.613,1.190,0.855,0.389,0.678,0.638,�k�k��,4.7,��
2020/10/06,07:10,0.678,0.974,0.612,1.190,0.854,0.388,0.678,0.638,�k�k��,4.3,��
2020/10/06,07:20,0.679,0.971,0.613,1.191,0.852,0.390,0.679,0.640,�k�k��,5.2,��
2020/10/06,07:30,0.679,0.975,0.611,1.190,0.856,0.388,0.679,0.638,�k��,4.6,��
2020/10/06,07:40,0.678,0.973,0.612,1.188,0.855,0.390,0.678,0.636,�k��,3.1,��
2020/10/06,07:50,0.679,0.968,0.614,1.192,0.855,0.388,0.677,0.638,���k��,2.9,��
2020/10/06,08:00,0.680,0.970,0.612,1.191,0.856,0.388,0.679,0.637,���k��,3.2,��
2020/10/06,08:10,0.680,0.969,0.613,1.190,0.853,0.388,0.677,0.637,���k��,4.3,��
2020/10/06,08:20,0.680,0.969,0.614,1.189,0.856,0.388,0.676,0.640,���k��,5.3,��
2020/10/06,08:30,0.680,0.971,0.613,1.190,0.855,0.388,0.676,0.638,���k��,5.6,��
2020/10/06,08:40,0.680,0.968,0.611,1.190,0.857,0.389,0.676,0.637,���k��,4.5,��
2020/10/06,08:50,0.679,0.968,0.611,1.189,0.853,0.387,0.676,0.637,�k��,4.8,��
2020/10/06,09:00,0.678,0.969,0.613,1.192,0.851,0.387,0.677,0.638,�k��,6.1,��
2020/10/06,09:10,0.678,0.968,0.612,1.189,0.853,0.388,0.676,0.636,�k��,7.9,��
2020/10/06,09:20,0.677,0.963,0.612,1.190,0.856,0.388,0.677,0.637,�k��,5.9,��
2020/10/06,09:30,0.677,0.964,0.614,1.193,0.855,0.386,0.678,0.637,�k��,7.3,��
2020/10/06,09:40,0.679,0.965,0.613,1.192,0.856,0.387,0.677,0.638,�k��,9.4,��
2020/10/06,09:50,0.679,0.964,0.613,1.190,0.854,0.387,0.677,0.636,�k��,7.9,��
2020/10/06,10:00,0.678,0.966,0.612,1.193,0.854,0.387,0.678,0.635,�k��,8.1,��
2020/10/06,10:10,0.679,0.965,-,1.195,0.854,0.387,0.678,0.637,�k��,5.8,��
2020/10/06,10:20,0.678,0.971,-,1.192,0.857,0.387,0.677,0.636,�k��,5.1,��
2020/10/06,10:30,0.676,0.969,-,1.190,0.854,0.387,0.677,0.636,�k��,5.5,��
2020/10/06,10:40,0.678,0.969,-,1.193,0.856,0.389,0.679,0.637,�k��,5.8,��
2020/10/06,10:50,0.679,0.967,-,1.193,0.856,0.387,0.678,0.636,�k�k��,4.8,��
2020/10/06,11:00,0.678,0.971,-,1.191,0.856,0.387,0.679,0.636,�k�k��,4.9,��
2020/10/06,11:10,0.681,0.969,-,1.194,0.857,0.388,0.677,0.638,�k�k��,6.1,��
2020/10/06,11:20,0.681,0.972,-,1.191,0.856,0.389,0.679,0.636,�k�k��,5.6,��
2020/10/06,11:30,0.680,0.972,-,1.192,0.858,0.388,0.679,0.636,�k�k��,5.4,��
2020/10/06,11:40,0.680,0.972,-,1.194,0.858,0.387,0.680,0.638,�k�k��,6.5,��
2020/10/06,11:50,0.679,0.972,-,1.193,0.859,0.389,0.679,0.636,�k�k��,6.2,��
2020/10/06,12:00,0.680,0.976,-,1.194,0.857,0.387,0.678,0.637,�k�k��,6.2,��
2020/10/06,12:10,0.681,0.974,-,1.193,0.859,0.387,0.678,0.638,�k��,6.7,��
2020/10/06,12:20,0.678,0.977,-,1.192,0.860,0.388,0.681,0.635,�k��,7.4,��
2020/10/06,12:30,0.680,0.976,-,1.193,0.858,0.387,0.678,0.638,�k��,5.4,��
2020/10/06,12:40,0.680,0.971,-,1.193,0.858,0.387,0.679,0.636,�k��,6.4,��
2020/10/06,12:50,0.680,0.972,-,1.194,0.856,0.388,0.678,0.638,�k��,5.7,��
2020/10/06,13:00,0.680,0.973,-,1.194,0.859,0.388,0.679,0.637,�k��,5.1,��
2020/10/06,13:10,0.678,0.973,-,1.193,0.858,0.387,0.679,0.637,�k��,4.6,��
2020/10/06,13:20,0.680,0.970,-,1.193,0.857,0.387,0.678,0.635,�k��,3.8,��
2020/10/06,13:30,0.680,0.969,-,1.195,0.861,0.387,0.677,0.636,���k��,5.0,��
2020/10/06,13:40,0.678,0.973,-,1.194,0.855,0.387,0.678,0.636,���k��,4.9,��
2020/10/06,13:50,0.679,0.967,-,1.192,0.858,0.388,0.679,0.636,���k��,4.3,��
2020/10/06,14:00,0.681,0.973,-,1.196,0.857,0.387,0.678,0.636,���k��,3.3,��
2020/10/06,14:10,0.681,0.973,-,1.194,0.857,0.388,0.677,0.636,��,2.9,��
2020/10/06,14:20,0.680,0.970,0.613,1.196,0.858,0.388,0.678,0.636,���k��,2.6,��
2020/10/06,14:30,0.681,0.974,0.615,1.194,0.859,0.388,0.680,0.637,���k��,2.2,��
2020/10/06,14:40,0.681,0.974,0.614,1.194,0.860,0.387,0.678,0.639,���k��,2.5,��
2020/10/06,14:50,0.685,0.975,0.614,1.194,0.859,0.388,0.681,0.638,���k��,2.2,��
2020/10/06,15:00,0.681,0.974,0.614,1.195,0.857,0.389,0.679,0.639,��,2.0,��
2020/10/06,15:10,0.682,0.974,0.613,1.196,0.860,0.388,0.678,0.637,���쐼,1.9,��
2020/10/06,15:20,0.683,0.976,0.613,1.199,0.859,0.387,0.679,0.638,���k��,2.6,��
2020/10/06,15:30,0.682,0.977,0.613,1.194,0.860,0.387,0.678,0.638,���k��,2.6,��
2020/10/06,15:40,0.681,0.974,0.615,1.197,0.858,0.388,0.679,0.636,��,2.0,��
2020/10/06,15:50,0.682,0.977,0.614,1.198,0.856,0.386,0.678,0.636,��,1.2,��
2020/10/06,16:00,0.680,0.977,0.613,1.197,0.859,0.389,0.680,0.637,�쐼,1.4,��
2020/10/06,16:10,0.680,0.975,0.613,1.196,0.860,0.387,0.678,0.638,�쐼,1.5,��
2020/10/06,16:20,0.680,0.974,0.614,1.197,0.861,0.389,0.678,0.639,-,CALM,��
2020/10/06,16:30,0.680,0.976,0.614,1.195,0.857,0.388,0.677,0.641,�k��,0.6,��
2020/10/06,16:40,0.680,0.976,0.612,1.195,0.858,0.388,0.680,0.639,��,1.5,��
2020/10/06,16:50,0.680,0.976,0.612,1.197,0.860,0.389,0.681,0.639,���k��,0.9,��
2020/10/06,17:00,0.678,0.977,0.614,1.196,0.858,0.387,0.680,0.638,-,CALM,��
2020/10/06,17:10,0.681,0.978,0.613,1.198,0.856,0.389,0.681,0.639,���쓌,1.4,��
2020/10/06,17:20,0.680,0.976,0.613,1.194,0.858,0.390,0.680,0.637,�k�k��,0.6,��
2020/10/06,17:30,0.680,0.976,0.613,1.195,0.859,0.389,0.681,0.640,-,CALM,��
2020/10/06,17:40,0.680,0.976,0.614,1.193,0.859,0.389,0.680,0.640,-,CALM,��
2020/10/06,17:50,0.681,0.978,0.615,1.195,0.861,0.389,0.678,0.639,��쐼,0.9,��
2020/10/06,18:00,0.682,0.976,0.613,1.197,0.861,0.390,0.681,0.639,���쐼,0.9,��
2020/10/06,18:10,0.681,0.977,0.615,1.194,0.860,0.388,0.680,0.639,�k��,1.7,��
2020/10/06,18:20,0.681,0.977,0.614,1.194,0.860,0.389,0.679,0.638,�k��,3.2,��
2020/10/06,18:30,0.680,0.976,0.616,1.194,0.860,0.388,0.679,0.639,�k��,4.3,��
2020/10/06,18:40,0.680,0.978,0.614,1.197,0.861,0.390,0.680,0.638,�k��,5.6,��
2020/10/06,18:50,0.681,0.976,0.615,1.197,0.860,0.389,0.679,0.638,�k��,5.4,��
2020/10/06,19:00,0.680,0.976,0.616,1.193,0.859,0.389,0.680,0.637,�k��,7.0,��
2020/10/06,19:10,0.681,0.977,0.615,1.195,0.858,0.389,0.679,0.639,�k��,4.8,��
2020/10/06,19:20,0.680,0.978,0.614,1.194,0.859,0.389,0.679,0.639,�k��,4.4,��
2020/10/06,19:30,0.681,0.978,0.614,1.196,0.860,0.389,0.679,0.638,�k��,6.0,��
2020/10/06,19:40,0.678,0.976,0.613,1.194,0.858,0.388,0.680,0.638,�k��,6.2,��
2020/10/06,19:50,0.680,0.976,0.614,1.192,0.860,0.389,0.679,0.639,�k��,5.3,��
2020/10/06,20:00,0.683,0.977,0.612,1.195,0.859,0.389,0.677,0.639,�k��,5.8,��
2020/10/06,20:10,0.680,0.979,0.614,1.194,0.858,0.389,0.679,0.638,�k��,5.5,��
2020/10/06,20:20,0.680,0.977,0.616,1.194,0.859,0.390,0.680,0.638,�k��,5.3,��
2020/10/06,20:30,0.681,0.976,0.614,1.195,0.859,0.388,0.679,0.637,�k��,5.4,��
2020/10/06,20:40,0.681,0.978,0.614,1.194,0.859,0.390,0.680,0.636,�k��,6.1,��
2020/10/06,20:50,0.679,0.976,0.613,1.198,0.861,0.390,0.680,0.636,�k��,5.5,��
2020/10/06,21:00,0.681,0.975,0.615,1.195,0.862,0.388,0.680,0.636,�k��,5.1,��
2020/10/06,21:10,0.680,0.976,0.616,1.194,0.858,0.388,0.679,0.638,�k��,4.9,��
2020/10/06,21:20,0.681,0.975,0.614,1.195,0.858,0.388,0.679,0.639,���k��,4.2,��
2020/10/06,21:30,0.681,0.976,0.613,1.197,0.859,0.388,0.679,0.638,���k��,4.5,��
2020/10/06,21:40,0.680,0.977,0.613,1.194,0.860,0.387,0.680,0.638,���k��,5.0,��
2020/10/06,21:50,0.680,0.975,0.613,1.194,0.859,0.388,0.678,0.637,�k��,4.9,��
2020/10/06,22:00,0.681,0.978,0.612,1.194,0.860,0.387,0.679,0.639,���k��,5.0,��
2020/10/06,22:10,0.681,0.976,0.613,1.194,0.858,0.389,0.679,0.639,�k��,5.4,��
2020/10/06,22:20,0.679,0.979,0.612,1.196,0.859,0.388,0.679,0.636,�k��,6.1,��
2020/10/06,22:30,0.679,0.977,0.614,1.198,0.860,0.387,0.679,0.638,�k��,5.9,��
2020/10/06,22:40,0.677,0.976,0.612,1.196,0.861,0.389,0.679,0.639,�k��,5.8,��
2020/10/06,22:50,0.679,0.976,0.612,1.198,0.860,0.388,0.679,0.639,�k��,6.1,��
2020/10/06,23:00,0.679,0.976,0.614,1.196,0.857,0.389,0.681,0.638,�k��,5.3,��
2020/10/06,23:10,0.682,0.975,0.612,1.196,0.857,0.388,0.680,0.638,�k��,6.0,��
2020/10/06,23:20,0.682,0.974,0.614,1.197,0.858,0.388,0.677,0.638,�k��,6.6,��
2020/10/06,23:30,0.679,0.975,0.612,1.198,0.858,0.389,0.679,0.638,�k��,6.1,��
2020/10/06,23:40,0.681,0.974,0.612,1.195,0.859,0.388,0.678,0.637,�k��,5.6,��
2020/10/06,23:50,0.681,0.976,0.613,1.197,0.861,0.388,0.679,0.637,�k��,5.4,��
